Flag for Japan Weather past 2 weeks in Suzuka, Japan

Now
82 °F

Warm.


Feels Like: 90 °F
Forecast: 78 / 93 °F
Wind: 6 mph from North

Location: Tsu

Current Time: Aug 4, 2015 at 7:07:03 AM

Latest Report: Aug 4, 2015 at 5:00 AM


Visibility: N/A

Pressure: 29.85 "Hg

Humidity: 89%

Dew point: 78 °F

Location of SuzukaLocation

Historic Weather in Suzuka — Graph

°F

Suzuka temperature yesterday

Maximum temperature yesterday: 91 °F (at 6:00 PM)
Minimum temperature yesterday: 82 °F (at 3:00 AM)
Average temperature yesterday: 86 °F

Past Weeks' High & Low Weather Summary

 TemperatureHumidityPressure
High98 °F (Jul 31, 3:00 PM)96% (Jul 23, 5:00 AM)30.01 "Hg (Jul 23, 5:00 AM)
Low76 °F (Jul 23, 5:00 AM)41% (Jul 31, 4:00 PM)29.70 "Hg (Jul 27, 5:00 PM)
Average85 °F72%29.85 "Hg
* Reported Jul 20 5:00 AM — Aug 4 5:00 AM, Suzuka, Weather by CustomWeather, © 2015

Note: Actual official high and low records may vary slightly from our data, if they occured in-between our weather recording intervals... More about our weather records

Advertising

Suzuka weather history for previous 24 hours

 ConditionsComfort  
Time TempWeatherWind HumidityBarometerVisibility
5:00 AM
Tue, Aug 4
82 °FWarm.6 mph89%29.85 "HgN/A
4:00 AM82 °FWarm.6 mph88%29.84 "HgN/A
3:00 AM82 °FWarm.5 mph88%29.85 "HgN/A
2:00 AM82 °FWarm.6 mph88%29.85 "HgN/A
1:00 AM83 °FWarm.6 mph86%29.86 "HgN/A
12:00 AM84 °FWarm.3 mph86%29.87 "HgN/A
11:00 PM
Mon, Aug 3
85 °FWarm.5 mph77%29.87 "HgN/A
10:00 PM86 °FWarm.3 mph76%29.87 "HgN/A
9:00 PM87 °FOvercast.6 mph73%29.86 "Hg5 mi
8:00 PM89 °FHot.1 mph71%29.84 "HgN/A
7:00 PM90 °FHot.5 mph67%29.82 "HgN/A
6:00 PM91 °FHot.9 mph64%29.83 "HgN/A
5:00 PM90 °FHot.6 mph66%29.82 "HgN/A
4:00 PM90 °FHot.8 mph72%29.83 "HgN/A
3:00 PM90 °FHaze.9 mph69%29.83 "Hg5 mi
2:00 PM90 °FHot.8 mph69%29.84 "HgN/A
12:00 PM89 °FHot.6 mph70%29.88 "HgN/A
11:00 AM88 °FHot.6 mph72%29.90 "HgN/A
10:00 AM87 °FWarm.5 mph74%29.91 "HgN/A
9:00 AM85 °FFog.6 mph78%29.92 "Hg5 mi
8:00 AM84 °FWarm.5 mph81%29.92 "HgN/A
7:00 AM83 °FWarm.3 mph85%29.92 "HgN/A
Weather by CustomWeather, © 2015

See weather overviewHow to use our weather pages